OM6ACB-6 Weather Reports


Display with metric or nautical units.
time (UTC)temp
F
wind
direction
speed
MPH
gust
MPH
rain 1hr
in
rain 24hr
in
rain mn
in
humidity
%
barometer
mb
20260504081404 70 278 5.0 8.0 0.00 0.00 0.00 22 1022.0
20260504080403 70 260 4.0 6.0 0.00 0.00 0.00 22 1022.0
20260504070402 64 162 2.0 5.0 0.00 0.00 0.00 24 1021.8
20260504050358 48 0 0.0 0.0 0.00 0.00 0.00 28 1020.7
20260504045358 44 0 0.0 0.0 0.00 0.00 0.00 29 1020.2
20260504044357 44 0 0.0 0.0 0.00 0.00 0.00 29 1020.0
20260504043357 42 0 0.0 0.0 0.00 0.00 0.00 30 1019.9
20260504042357 41 0 0.0 0.0 0.00 0.00 0.00 30 1019.8
20260504041357 39 0 0.0 0.0 0.00 0.00 0.00 31 1019.6
20260504040356 38 0 0.0 0.0 0.00 0.00 0.00 31 1019.4
20260504035356 36 0 0.0 0.0 0.00 0.00 0.00 33 1019.2
20260504034356 33 0 0.0 0.0 0.00 0.00 0.00 59 1018.9
20260504033355 32 0 0.0 0.0 0.00 0.00 0.00 63 1018.7
20260504032355 31 0 0.0 0.0 0.00 0.00 0.00 62 1018.6
20260504031355 31 0 0.0 0.0 0.00 0.00 0.00 61 1018.6
20260504030354 33 0 0.0 0.0 0.00 0.00 0.00 61 1018.8
20260504025354 33 0 0.0 0.0 0.00 0.00 0.00 61 1018.8
20260504024354 33 0 0.0 0.0 0.00 0.00 0.00 63 1018.8
20260504023354 31 0 0.0 0.0 0.00 0.00 0.00 62 1018.6
20260504022353 30 0 0.0 0.0 0.00 0.00 0.00 58 1018.6
20260504021353 32 0 0.0 0.0 0.00 0.00 0.00 57 1018.7
20260504020353 32 0 0.0 0.0 0.00 0.00 0.00 53 1018.8
20260504015352 33 0 0.0 0.0 0.00 0.00 0.00 50 1018.8
20260504014352 33 0 0.0 0.0 0.00 0.00 0.00 49 1018.8
20260504013352 33 45 0.0 0.0 0.00 0.00 0.00 50 1018.8
20260504012352 34 0 0.0 0.0 0.00 0.00 0.00 51 1018.9
20260504011351 34 0 0.0 0.0 0.00 0.00 0.00 50 1018.8
20260504010351 34 0 0.0 0.0 0.00 0.00 0.00 49 1018.8
20260504005351 34 0 0.0 0.0 0.00 0.00 0.00 47 1018.8
20260504004350 34 0 0.0 0.0 0.00 0.00 0.00 47 1018.8
20260504003350 34 0 0.0 0.0 0.00 0.00 0.00 42 1018.8
20260504002350 35 0 0.0 0.0 0.00 0.00 0.00 42 1019.0
20260504001350 35 0 0.0 0.0 0.00 0.00 0.00 42 1019.1
20260504000349 35 0 0.0 0.0 0.00 0.00 0.00 41 1019.1
20260503235349 36 0 0.0 0.0 0.00 0.00 0.00 32 1019.2
20260503234349 37 0 0.0 0.0 0.00 0.00 0.00 32 1019.4
20260503233348 37 0 0.0 0.0 0.00 0.00 0.00 32 1019.4
20260503232348 38 0 0.0 0.0 0.00 0.00 0.00 32 1019.4
20260503231348 38 0 0.0 0.0 0.00 0.00 0.00 31 1019.5
20260503230347 38 0 0.0 0.0 0.00 0.00 0.00 31 1019.6
20260503225347 39 0 0.0 0.0 0.00 0.00 0.00 31 1019.7
20260503224347 39 0 0.0 0.0 0.00 0.00 0.00 31 1019.7
20260503223347 40 0 0.0 0.0 0.00 0.00 0.00 30 1019.8
20260503222347 40 0 0.0 0.0 0.00 0.00 0.00 30 1019.8
20260503221346 40 0 0.0 0.0 0.00 0.00 0.00 30 1019.8
20260503220346 39 0 0.0 0.0 0.00 0.00 0.00 31 1019.8
20260503215345 42 0 0.0 0.0 0.00 0.00 0.00 30 1020.0
20260503214345 44 0 0.0 0.0 0.00 0.00 0.00 29 1020.1
20260503213345 44 0 0.0 0.0 0.00 0.00 0.00 29 1020.2
20260503212345 45 0 0.0 0.0 0.00 0.00 0.00 29 1020.1
20260503211344 45 0 0.0 0.0 0.00 0.00 0.00 29 1020.2
20260503210344 45 0 0.0 0.0 0.00 0.00 0.00 29 1020.2
20260503205344 45 0 0.0 0.0 0.00 0.00 0.00 29 1020.1
20260503204343 45 0 0.0 0.0 0.00 0.00 0.00 29 1020.2
20260503203343 45 0 0.0 0.0 0.00 0.00 0.00 29 1020.2
20260503202343 45 0 0.0 0.0 0.00 0.00 0.00 29 1020.1
20260503201343 45 0 0.0 0.0 0.00 0.00 0.00 29 1020.0
20260503200342 44 0 0.0 0.0 0.00 0.00 0.00 29 1020.0
20260503195342 44 0 0.0 0.0 0.00 0.00 0.00 29 1019.9
20260503194342 45 0 0.0 0.0 0.00 0.00 0.00 29 1020.0
20260503193341 46 0 0.0 0.0 0.00 0.00 0.00 29 1020.0
20260503192341 47 0 0.0 0.0 0.00 0.00 0.00 28 1020.1
20260503191341 48 0 0.0 0.0 0.00 0.00 0.00 28 1020.0
20260503190340 47 0 0.0 0.0 0.00 0.00 0.00 28 1019.9
20260503185340 48 0 0.0 0.0 0.00 0.00 0.00 28 1019.8
20260503184340 49 0 0.0 0.0 0.00 0.00 0.00 28 1019.8
20260503183340 52 0 0.0 0.0 0.00 0.00 0.00 27 1020.0
20260503182340 54 0 0.0 0.0 0.00 0.00 0.00 26 1020.2
20260503181339 58 325 0.0 1.0 0.00 0.00 0.00 25 1020.3
20260503180339 58 314 0.0 1.0 0.00 0.00 0.00 25 1020.2
20260503175338 59 314 0.0 0.0 0.00 0.00 0.00 25 1020.3
20260503174338 62 309 1.0 4.0 0.00 0.00 0.00 24 1020.6
20260503173338 64 272 1.0 3.0 0.00 0.00 0.00 24 1020.6
20260503172338 64 279 2.0 4.0 0.00 0.00 0.00 24 1020.7
20260503171337 65 273 1.0 4.0 0.00 0.00 0.00 23 1020.6
20260503170337 66 304 2.0 4.0 0.00 0.00 0.00 23 1020.8
20260503150333 75 248 5.0 6.0 0.00 0.00 0.00 20 1021.9
20260503131330 75 310 4.0 8.0 0.00 0.00 0.00 21 1023.0
20260503130330 75 311 4.0 8.0 0.00 0.00 0.00 20 1023.1
20260503110326 74 276 6.0 7.0 0.00 0.00 0.00 21 1024.1